weather.gov     
National Weather Service

Regional Weather Roundup
NWS Homepage
This page is being discontinued on March 12, 2014.
The same data is available at this site. Please update your bookmarks.
Thank you, and we apologize for the inconvenience.
Please send an email to SR-SRH.Webmaster@noaa.gov with any concerns.


Current Version
Previous Version:    01  02  03  04  05  06  07  08  09  10  11  12  13  14  15  16  17  18  19  20  21  22  23  24  25  26  27  28  29  30  
   31  32  33  34  35  36  37  38  39  40  41  42  43  44  45  46  47  48  49  50  51  52  53  
[Printable]
308
ASUS44 KMEG 191610
RWRTN
TENNESSEE HOURLY STATE WEATHER ROUNDUP
NATIONAL WEATHER SERVICE MEMPHIS TN
1000 AM CST FRI DEC 19 2014

TNZ002-004-019-021-049-052-054-088>092-191700-
WEST TENNESSEE

CITY           SKY/WX    TMP DP  RH WIND       PRES   REMARKS
MEMPHIS INTL   CLOUDY    42  33  70 E7        30.28R
NWS MEMPHIS      N/A     40 N/A N/A MISG        N/A
JACKSON        CLOUDY    38  29  70 E6        30.29S WCI  33
DYERSBURG      CLOUDY    37  21  52 NE9       30.32S WCI  31
UNION CITY     CLOUDY    34  28  80 E6        30.29S WCI  29
PARIS          CLOUDY    34  27  75 NE5       30.30S WCI  30
HUNTINGDON     CLOUDY    34  27  76 NE5       30.30S WCI  30
LEXINGTON      CLOUDY    36  28  75 NE6       30.27S WCI  31
SAVANNAH       CLOUDY    39  32  75 NE5       30.28R
$$

TNZ008-025-027-028-033-062-065-066-191700-
NORTH MIDDLE TENNESSEE

CITY           SKY/WX    TMP DP  RH WIND       PRES   REMARKS
NASHVILLE      CLOUDY    37  28  70 N6        30.29R WCI  32
CLARKSVILLE    CLOUDY    35  29  78 E6        30.31R WCI  30
SMYRNA         CLOUDY    37  28  70 N5        30.30S WCI  33
COOKEVILLE     MOSUNNY   34  30  86 NW3       30.24R
CROSSVILLE     PTSUNNY   34  26  72 N6        30.21F WCI  29
$$

TNZ061-075-076-078-094-096-097-191700-
SOUTH MIDDLE TENNESSEE

CITY           SKY/WX    TMP DP  RH WIND       PRES   REMARKS
FAYETTEVILLE   CLOUDY    36  28  75 MISG      30.23S
TULLAHOMA      CLOUDY    36  30  80 N7        30.24R WCI  30
WINCHESTER     PTSUNNY   36  30  80 N6        30.24S WCI  31
MCMINNVILLE    SUNNY     36  34  93 CALM      30.25R
SHELBYVILLE    CLOUDY    36  30  80 N5        30.27R WCI  32
$$

TNZ017-018-042-046-047-191700-
NORTHEAST TENNESSEE

CITY           SKY/WX    TMP DP  RH WIND       PRES   REMARKS
TRI CITIES     MOSUNNY   42  24  49 CALM      30.20S
ELIZABETHTON   PTSUNNY   41  21  45 W7        30.18F
$$

TNZ012-013-036-069-073-074-191700-
CENTRAL EAST TENNESSEE

CITY           SKY/WX    TMP DP  RH WIND       PRES   REMARKS
KNOXVILLE      CLOUDY    41  26  55 N7        30.21S
OAK RIDGE      PTSUNNY   42  25  50 CALM      30.24S
GATLINBURG     SUNNY     41  27  56 CALM      30.20S
MORRISTOWN     SUNNY     43  25  49 VRB5      30.20F
$$

TNZ083-085-099-191700-
SOUTHEAST TENNESSEE

CITY           SKY/WX    TMP DP  RH WIND       PRES   REMARKS
CHATTANOOGA    CLOUDY    41  29  62 NE8       30.23S
$$

SKY/WX REPORTED AS FAIR MEANS FEW OR NO CLOUDS BELOW
12 THOUSAND FEET.





U.S. Dept. of Commerce
NOAA National Weather Service
1325 East West Highway
Silver Spring, MD 20910
E-mail: w-nws.webmaster@noaa.gov
Page last modified: May 16, 2007
NATIONAL WEATHER SERVICE: for Safety, for Work, for Fun - FOR LIFE